| time (UTC) | temp C | wind direction | speed KPH | gust KPH | rain 1hr cm | rain 24hr cm | rain mn cm | humidity % | barometer mb |
| 20260506044402 | 13 | 95 | 6.4 | 12.9 | 0.08 | 0.15 | 0.15 | 67 | 1006.8 |
| 20260506043401 | 13 | 96 | 3.2 | 11.3 | 0.08 | 0.15 | 0.15 | 67 | 1006.8 |
| 20260506042843 | 13 | 138 | 3.2 | 9.7 | 0.08 | 0.15 | 0.15 | 67 | 1007.2 |
| 20260506042615 | 13 | 138 | 3.2 | 9.7 | 0.08 | 0.15 | 0.15 | 67 | 1007.2 |
| 20260506041839 | 13 | 130 | 3.2 | 14.5 | 0.05 | 0.13 | 0.13 | 67 | 1007.2 |
| 20260506041611 | 13 | 130 | 3.2 | 14.5 | 0.05 | 0.13 | 0.13 | 67 | 1007.2 |
| 20260506040838 | 13 | 139 | 3.2 | 11.3 | 0.05 | 0.10 | 0.10 | 67 | 1007.0 |
| 20260506040612 | 13 | 139 | 3.2 | 11.3 | 0.05 | 0.10 | 0.10 | 67 | 1007.0 |
| 20260506035357 | 13 | 142 | 3.2 | 11.3 | 0.10 | 0.10 | 0.10 | 68 | 1007.1 |
| 20260506034352 | 13 | 123 | 3.2 | 11.3 | 0.08 | 0.08 | 0.08 | 68 | 1007.2 |
| 20260506033604 | 13 | 126 | 3.2 | 12.9 | 0.05 | 0.05 | 0.05 | 69 | 1007.3 |
| 20260506032351 | 13 | 128 | 4.8 | 11.3 | 0.05 | 0.05 | 0.05 | 69 | 1007.3 |
| 20260506031828 | 13 | 95 | 4.8 | 9.7 | 0.05 | 0.05 | 0.05 | 71 | 1007.2 |
| 20260506031606 | 13 | 95 | 4.8 | 9.7 | 0.05 | 0.05 | 0.05 | 71 | 1007.2 |
| 20260506030352 | 13 | 82 | 3.2 | 9.7 | 0.05 | 0.05 | 0.05 | 71 | 1007.3 |
| 20260506025352 | 13 | 94 | 3.2 | 4.8 | 0.00 | 0.00 | 0.03 | 72 | 1007.5 |
| 20260506024825 | 13 | 82 | 3.2 | 9.7 | 0.00 | 0.00 | 0.00 | 72 | 1007.7 |
| 20260506024604 | 13 | 82 | 3.2 | 9.7 | 0.00 | 0.00 | 0.00 | 72 | 1007.7 |
| 20260506023345 | 13 | 95 | 4.8 | 11.3 | 0.00 | 0.00 | 0.00 | 72 | 1007.9 |
| 20260506022345 | 13 | 62 | 6.4 | 11.3 | 0.00 | 0.00 | 0.00 | 73 | 1008.0 |
| 20260506021818 | 13 | 101 | 3.2 | 12.9 | 0.00 | 0.00 | 0.00 | 73 | 1008.1 |
| 20260506021557 | 13 | 101 | 3.2 | 12.9 | 0.00 | 0.00 | 0.00 | 73 | 1008.1 |
| 20260506020345 | 13 | 80 | 3.2 | 9.7 | 0.00 | 0.00 | 0.00 | 73 | 1008.2 |
| 20260506015345 | 13 | 123 | 3.2 | 9.7 | 0.00 | 0.00 | 0.00 | 73 | 1008.2 |
| 20260506014345 | 13 | 87 | 3.2 | 12.9 | 0.00 | 0.00 | 0.00 | 73 | 1008.4 |
| 20260506013345 | 13 | 117 | 1.6 | 11.3 | 0.00 | 0.00 | 0.00 | 73 | 1008.3 |
| 20260506012345 | 13 | 140 | 6.4 | 12.9 | 0.00 | 0.00 | 0.00 | 74 | 1008.3 |
| 20260506011345 | 13 | 101 | 6.4 | 12.9 | 0.00 | 0.00 | 0.00 | 74 | 1008.2 |
| 20260506010354 | 13 | 119 | 4.8 | 0.0 | 0.00 | 0.00 | 0.00 | 74 | 1008.2 |
| 20260506005420 | 13 | 103 | 3.2 | 9.7 | 0.00 | 0.46 | 0.00 | 74 | 1008.0 |
| 20260506004419 | 13 | 91 | 1.6 | 4.8 | 0.00 | 0.46 | 0.00 | 75 | 1008.1 |
| 20260506003416 | 13 | 112 | 1.6 | 9.7 | 0.00 | 0.46 | 0.00 | 74 | 1008.3 |
| 20260506002847 | 13 | 92 | 4.8 | 11.3 | 0.00 | 0.46 | 0.00 | 74 | 1008.5 |
| 20260506002627 | 13 | 92 | 4.8 | 11.3 | 0.00 | 0.46 | 0.00 | 74 | 1008.5 |
| 20260506001416 | 13 | 107 | 3.2 | 9.7 | 0.00 | 0.46 | 0.00 | 74 | 1008.7 |
| 20260506000416 | 14 | 105 | 3.2 | 9.7 | 0.00 | 0.46 | 0.00 | 74 | 1008.8 |
| 20260505235415 | 14 | 98 | 3.2 | 12.9 | 0.00 | 0.46 | 0.00 | 73 | 1009.0 |
| 20260505234415 | 13 | 97 | 1.6 | 4.8 | 0.00 | 0.46 | 0.00 | 73 | 1009.1 |
| 20260505233415 | 13 | 117 | 1.6 | 4.8 | 0.00 | 0.46 | 0.00 | 74 | 1009.2 |
| 20260505232416 | 13 | 95 | 1.6 | 4.8 | 0.00 | 0.46 | 0.00 | 74 | 1009.3 |
| 20260505231854 | 13 | 95 | 0.0 | 6.4 | 0.00 | 0.46 | 0.00 | 74 | 1009.2 |
| 20260505231629 | 13 | 95 | 0.0 | 6.4 | 0.00 | 0.46 | 0.00 | 74 | 1009.2 |
| 20260505230413 | 13 | 95 | 1.6 | 3.2 | 0.00 | 0.46 | 0.00 | 74 | 1009.3 |
| 20260505225859 | 13 | 95 | 0.0 | 3.2 | 0.00 | 0.46 | 0.00 | 75 | 1009.2 |
| 20260505225626 | 13 | 95 | 0.0 | 3.2 | 0.00 | 0.46 | 0.00 | 75 | 1009.2 |
| 20260505224413 | 14 | 95 | 3.2 | 6.4 | 0.00 | 0.46 | 0.00 | 75 | 1009.3 |
| 20260505223411 | 14 | 98 | 4.8 | 11.3 | 0.00 | 0.46 | 0.00 | 75 | 1009.3 |
| 20260505222623 | 14 | 99 | 3.2 | 11.3 | 0.00 | 0.46 | 0.00 | 75 | 1009.4 |
| 20260505221412 | 14 | 115 | 1.6 | 9.7 | 0.00 | 0.46 | 0.00 | 75 | 1009.5 |
| 20260505220411 | 14 | 96 | 4.8 | 9.7 | 0.00 | 0.46 | 0.00 | 75 | 1009.5 |
| 20260505215408 | 14 | 92 | 4.8 | 11.3 | 0.00 | 0.46 | 0.46 | 76 | 1009.7 |
| 20260505214408 | 14 | 90 | 4.8 | 11.3 | 0.00 | 0.46 | 0.46 | 76 | 1009.8 |
| 20260505213409 | 15 | 89 | 3.2 | 9.7 | 0.00 | 0.46 | 0.46 | 76 | 1010.0 |
| 20260505212408 | 15 | 98 | 1.6 | 4.8 | 0.00 | 0.46 | 0.46 | 76 | 1010.0 |
| 20260505211408 | 15 | 111 | 1.6 | 4.8 | 0.00 | 0.46 | 0.46 | 77 | 1010.0 |
| 20260505210407 | 15 | 111 | 1.6 | 4.8 | 0.00 | 0.46 | 0.46 | 77 | 1010.1 |
| 20260505205409 | 15 | 123 | 0.0 | 3.2 | 0.00 | 0.46 | 0.46 | 77 | 1010.3 |
| 20260505204406 | 15 | 123 | 0.0 | 0.0 | 0.00 | 0.46 | 0.46 | 77 | 1010.3 |
| 20260505203406 | 15 | 123 | 0.0 | 0.0 | 0.00 | 0.46 | 0.46 | 77 | 1010.3 |
| 20260505202406 | 15 | 123 | 0.0 | 1.6 | 0.00 | 0.46 | 0.46 | 77 | 1010.3 |
| 20260505201407 | 15 | 123 | 0.0 | 3.2 | 0.00 | 0.46 | 0.46 | 77 | 1010.3 |
| 20260505200406 | 15 | 123 | 0.0 | 3.2 | 0.00 | 0.46 | 0.46 | 77 | 1010.3 |
| 20260505195403 | 15 | 123 | 0.0 | 3.2 | 0.00 | 0.46 | 0.46 | 77 | 1010.2 |
| 20260505194404 | 15 | 123 | 0.0 | 3.2 | 0.00 | 0.46 | 0.46 | 77 | 1010.2 |
| 20260505193402 | 15 | 123 | 0.0 | 4.8 | 0.00 | 0.46 | 0.46 | 76 | 1010.1 |
| 20260505192401 | 15 | 126 | 0.0 | 3.2 | 0.00 | 0.46 | 0.46 | 76 | 1010.1 |
| 20260505191359 | 15 | 126 | 0.0 | 4.8 | 0.00 | 0.46 | 0.46 | 76 | 1010.1 |
| 20260505190359 | 15 | 122 | 1.6 | 9.7 | 0.00 | 0.46 | 0.46 | 76 | 1009.9 |
| 20260505185836 | 15 | 95 | 1.6 | 9.7 | 0.00 | 0.46 | 0.46 | 75 | 1009.8 |
| 20260505185613 | 15 | 95 | 1.6 | 9.7 | 0.00 | 0.46 | 0.46 | 75 | 1009.8 |
| 20260505184400 | 15 | 90 | 1.6 | 4.8 | 0.00 | 0.46 | 0.46 | 75 | 1009.9 |
| 20260505183359 | 15 | 80 | 1.6 | 4.8 | 0.00 | 0.46 | 0.46 | 75 | 1009.9 |
| 20260505182836 | 15 | 64 | 1.6 | 4.8 | 0.00 | 0.46 | 0.46 | 75 | 1009.8 |
| 20260505182611 | 15 | 64 | 1.6 | 4.8 | 0.00 | 0.46 | 0.46 | 75 | 1009.8 |
| 20260505181401 | 15 | 58 | 1.6 | 4.8 | 0.00 | 0.46 | 0.46 | 75 | 1009.8 |
| 20260505180359 | 15 | 58 | 1.6 | 6.4 | 0.00 | 0.46 | 0.46 | 75 | 1009.8 |
| 20260505175359 | 15 | 54 | 1.6 | 4.8 | 0.00 | 0.46 | 0.46 | 75 | 1009.8 |
| 20260505174359 | 15 | 54 | 1.6 | 6.4 | 0.00 | 0.46 | 0.46 | 75 | 1009.8 |
| 20260505173359 | 15 | 99 | 0.0 | 3.2 | 0.00 | 0.46 | 0.46 | 75 | 1009.9 |
| 20260505172359 | 15 | 99 | 0.0 | 4.8 | 0.00 | 0.46 | 0.46 | 75 | 1009.8 |
| 20260505171359 | 15 | 99 | 0.0 | 3.2 | 0.00 | 0.46 | 0.46 | 76 | 1009.8 |
| 20260505170359 | 15 | 99 | 1.6 | 4.8 | 0.00 | 0.46 | 0.46 | 76 | 1009.8 |
| 20260505165359 | 15 | 103 | 1.6 | 6.4 | 0.00 | 0.46 | 0.46 | 76 | 1009.8 |
| 20260505164359 | 15 | 61 | 1.6 | 4.8 | 0.00 | 0.46 | 0.46 | 76 | 1009.9 |
| 20260505163359 | 15 | 105 | 1.6 | 6.4 | 0.00 | 0.46 | 0.46 | 76 | 1010.0 |
| 20260505162359 | 15 | 110 | 1.6 | 4.8 | 0.00 | 0.46 | 0.46 | 76 | 1010.0 |
| 20260505161839 | 15 | 99 | 3.2 | 4.8 | 0.00 | 0.46 | 0.46 | 76 | 1010.0 |
| 20260505161613 | 15 | 99 | 3.2 | 4.8 | 0.00 | 0.46 | 0.46 | 76 | 1010.0 |
| 20260505160836 | 15 | 98 | 1.6 | 6.4 | 0.03 | 0.46 | 0.46 | 76 | 1010.1 |
| 20260505160614 | 15 | 98 | 1.6 | 6.4 | 0.03 | 0.46 | 0.46 | 76 | 1010.1 |
| 20260505153359 | 14 | 94 | 4.8 | 11.3 | 0.03 | 0.46 | 0.46 | 76 | 1010.2 |
| 20260505152359 | 14 | 92 | 4.8 | 11.3 | 0.03 | 0.46 | 0.46 | 76 | 1010.2 |
| 20260505151401 | 15 | 82 | 4.8 | 12.9 | 0.03 | 0.46 | 0.46 | 76 | 1010.1 |
| 20260505150614 | 15 | 104 | 3.2 | 9.7 | 0.00 | 0.43 | 0.43 | 76 | 1010.2 |
| 20260505140610 | 15 | 92 | 1.6 | 4.8 | 0.10 | 0.43 | 0.43 | 79 | 1010.3 |
| 20260505124359 | 16 | 116 | 1.6 | 9.7 | 0.00 | 0.33 | 0.33 | 84 | 1010.6 |
| 20260505123359 | 16 | 88 | 4.8 | 11.3 | 0.00 | 0.33 | 0.33 | 83 | 1010.6 |
| 20260505122359 | 16 | 86 | 4.8 | 11.3 | 0.00 | 0.33 | 0.33 | 83 | 1010.6 |
| 20260505121610 | 16 | 99 | 3.2 | 12.9 | 0.00 | 0.33 | 0.33 | 82 | 1010.5 |
| 20260505120400 | 16 | 100 | 4.8 | 11.3 | 0.00 | 0.33 | 0.33 | 82 | 1010.5 |
| 20260505115359 | 16 | 117 | 3.2 | 11.3 | 0.00 | 0.33 | 0.33 | 84 | 1010.6 |
| 20260505114359 | 16 | 86 | 6.4 | 12.9 | 0.00 | 0.33 | 0.33 | 85 | 1010.6 |
| 20260505113400 | 16 | 96 | 3.2 | 11.3 | 0.00 | 0.33 | 0.33 | 85 | 1010.6 |
| 20260505112359 | 15 | 47 | 3.2 | 8.0 | 0.00 | 0.33 | 0.33 | 85 | 1010.6 |
| 20260505111359 | 15 | 90 | 1.6 | 6.4 | 0.00 | 0.33 | 0.33 | 86 | 1010.7 |
| 20260505110412 | 15 | 58 | 1.6 | 6.4 | 0.00 | 0.33 | 0.33 | 85 | 1010.8 |
| 20260505101355 | 15 | 30 | 1.6 | 4.8 | 0.00 | 0.33 | 0.33 | 83 | 1010.8 |
| 20260505100834 | 15 | 17 | 0.0 | 4.8 | 0.00 | 0.33 | 0.33 | 83 | 1010.9 |
| 20260505100607 | 15 | 17 | 0.0 | 4.8 | 0.00 | 0.33 | 0.33 | 83 | 1010.9 |
| 20260505095355 | 14 | 177 | 0.0 | 0.0 | 0.00 | 0.33 | 0.33 | 82 | 1010.9 |
| 20260505094355 | 14 | 177 | 0.0 | 0.0 | 0.00 | 0.33 | 0.33 | 79 | 1010.9 |
| 20260505093355 | 14 | 163 | 0.0 | 0.0 | 0.00 | 0.33 | 0.33 | 78 | 1011.0 |
| 20260505092356 | 14 | 163 | 0.0 | 0.0 | 0.00 | 0.33 | 0.33 | 77 | 1010.8 |
| 20260505091354 | 14 | 163 | 0.0 | 1.6 | 0.00 | 0.33 | 0.33 | 77 | 1010.7 |
| 20260505090835 | 13 | 163 | 0.0 | 3.2 | 0.00 | 0.33 | 0.33 | 77 | 1010.8 |
| 20260505090608 | 13 | 163 | 0.0 | 3.2 | 0.00 | 0.33 | 0.33 | 77 | 1010.8 |
| 20260505085353 | 13 | 159 | 1.6 | 6.4 | 0.00 | 0.33 | 0.33 | 77 | 1010.6 |
| 20260505084353 | 13 | 156 | 0.0 | 4.8 | 0.00 | 0.33 | 0.33 | 76 | 1010.6 |
| 20260505083352 | 13 | 156 | 1.6 | 4.8 | 0.00 | 0.33 | 0.33 | 77 | 1010.6 |
| 20260505082352 | 13 | 156 | 0.0 | 3.2 | 0.00 | 0.33 | 0.33 | 77 | 1010.7 |
| 20260505081353 | 13 | 146 | 0.0 | 3.2 | 0.03 | 0.33 | 0.33 | 77 | 1010.6 |
| 20260505080836 | 13 | 146 | 1.6 | 4.8 | 0.05 | 0.33 | 0.33 | 77 | 1010.6 |
| 20260505080604 | 13 | 146 | 1.6 | 4.8 | 0.05 | 0.33 | 0.33 | 77 | 1010.6 |
| 20260505075350 | 13 | 127 | 0.0 | 3.2 | 0.13 | 0.33 | 0.33 | 77 | 1010.8 |
| 20260505074832 | 13 | 126 | 0.0 | 3.2 | 0.15 | 0.33 | 0.33 | 77 | 1010.8 |
| 20260505074606 | 13 | 126 | 0.0 | 3.2 | 0.15 | 0.33 | 0.33 | 77 | 1010.8 |
| 20260505073351 | 13 | 126 | 1.6 | 4.8 | 0.15 | 0.33 | 0.33 | 77 | 1010.7 |
| 20260505072829 | 13 | 127 | 1.6 | 4.8 | 0.18 | 0.33 | 0.33 | 77 | 1010.6 |
| 20260505072602 | 13 | 127 | 1.6 | 4.8 | 0.18 | 0.33 | 0.33 | 77 | 1010.6 |
| 20260505071833 | 13 | 196 | 0.0 | 1.6 | 0.23 | 0.33 | 0.33 | 78 | 1010.7 |
| 20260505071603 | 13 | 196 | 0.0 | 1.6 | 0.23 | 0.33 | 0.33 | 78 | 1010.7 |
| 20260505070349 | 13 | 196 | 0.0 | 3.2 | 0.23 | 0.30 | 0.30 | 78 | 1010.8 |
| 20260505065605 | 13 | 196 | 0.0 | 4.8 | 0.15 | 0.23 | 0.23 | 78 | 1010.6 |
| 20260505064350 | 13 | 209 | 3.2 | 8.0 | 0.15 | 0.20 | 0.20 | 78 | 1010.9 |
| 20260505063350 | 13 | 235 | 3.2 | 8.0 | 0.18 | 0.20 | 0.20 | 79 | 1010.9 |
| 20260505062832 | 13 | 225 | 4.8 | 12.9 | 0.15 | 0.15 | 0.15 | 79 | 1010.7 |
| 20260505062603 | 13 | 225 | 4.8 | 12.9 | 0.15 | 0.15 | 0.15 | 79 | 1010.7 |
| 20260505061350 | 13 | 200 | 4.8 | 12.9 | 0.10 | 0.10 | 0.10 | 81 | 1010.8 |
| 20260505060349 | 13 | 221 | 3.2 | 8.0 | 0.08 | 0.08 | 0.08 | 82 | 1010.9 |
| 20260505055833 | 13 | 219 | 4.8 | 12.9 | 0.05 | 0.05 | 0.05 | 83 | 1010.8 |
| 20260505055606 | 13 | 219 | 4.8 | 12.9 | 0.05 | 0.05 | 0.05 | 83 | 1010.8 |
| 20260505054831 | 13 | 215 | 6.4 | 14.5 | 0.05 | 0.05 | 0.05 | 84 | 1010.7 |
| 20260505054602 | 13 | 215 | 6.4 | 14.5 | 0.05 | 0.05 | 0.05 | 84 | 1010.7 |
| 20260505053350 | 13 | 257 | 4.8 | 12.9 | 0.03 | 0.03 | 0.03 | 85 | 1010.5 |
| 20260505052349 | 14 | 258 | 4.8 | 11.3 | 0.00 | 0.00 | 0.00 | 86 | 1010.3 |
| 20260505051349 | 14 | 227 | 4.8 | 12.9 | 0.00 | 0.00 | 0.00 | 85 | 1010.2 |
| 20260505050351 | 14 | 209 | 4.8 | 12.9 | 0.00 | 0.00 | 0.00 | 84 | 1010.1 |